Spencer, IA

1:44 PM CST on December 05, 2016 (GMT -0600)
Spencer Municipal

Weather History for KSPW - November, 2012

Change the Weather History Date:

Thursday, November 1, 2012

  Actual Average Record
Temperature  
Mean Temperature 39 °F -  
Max Temperature 50 °F 49 °F 70 °F (1990)
Min Temperature 30 °F 32 °F 12 °F (2006)
Degree Days  
Heating Degree Days 26    
Moisture  
Dew Point 31 °F    
Average Humidity 72    
Maximum Humidity 93    
Minimum Humidity 42    
Precipitation  
Precipitation 0.00 in - - ()
Sea Level Pressure  
Sea Level Pressure 30.02 in    
Wind  
Wind Speed 8 mph (NNW)    
Max Wind Speed 20 mph    
Max Gust Speed 24 mph    
Visibility 8 miles    
Events      
Averages and records for this station are not official NWS values.
T = Trace of Precipitation, MM = Missing Value Source: NWS Daily Summary

Daily Weather History Graph

Daily Weather History Graph

Search for Another Location

Airport or City:

Trip Planner

Search our weather history database for the weather conditions in past years. The results will help you decide how hot, cold, wet, or windy it might be!

Date:

Astronomy

Nov. 01, 2012 Rise Set
Actual Time 7:56 AM CDT 6:11 PM CDT
Civil Twilight 7:26 AM CDT 6:41 PM CDT
Nautical Twilight 6:52 AM CDT 7:15 PM CDT
Astronomical Twilight 6:19 AM CDT 7:48 PM CDT
Moon 8:06 PM CDT (11/1) 10:33 AM CDT (11/1)
Length of Visible Light 11h 14m
Length of Day
10h 15m
Waning Gibbous, 93% of the Moon is Illuminated
Nov 1
Waning Gibbous
Nov 6
Last Quarter
Nov 13
New
Nov 20
First Quarter
Nov 28
Full

Hourly Weather History & Observations

Time (CDT) Temp. Windchill Dew Point Humidity Pressure Visibility Wind Dir Wind Speed Gust Speed Precip Events Conditions
12:53 AM 39.0 °F - 33.1 °F 79% 29.97 in 5.0 mi Calm Calm - N/A   Haze
1:53 AM 39.0 °F 36.8 °F 34.0 °F 82% 29.99 in 6.0 mi WNW 3.5 mph - N/A   Haze
2:53 AM 43.0 °F 41.3 °F 35.1 °F 74% 29.99 in 8.0 mi NW 3.5 mph - N/A   Overcast
3:53 AM 39.9 °F 34.5 °F 34.0 °F 79% 29.99 in 7.0 mi NNW 8.1 mph - N/A   Mostly Cloudy
4:53 AM 37.0 °F 31.0 °F 33.1 °F 86% 29.98 in 8.0 mi NNW 8.1 mph - N/A   Scattered Clouds
5:53 AM 42.1 °F 36.6 °F 37.0 °F 82% 29.99 in 7.0 mi NNW 9.2 mph - N/A   Overcast
7:09 AM 39.2 °F 32.0 °F 37.4 °F 93% 29.99 in 6.0 mi North 11.5 mph 18.4 mph N/A   Scattered Clouds
7:17 AM 41.0 °F 31.9 °F 37.4 °F 87% 29.99 in 6.0 mi North 19.6 mph 24.2 mph N/A   Mostly Cloudy
7:53 AM 41.0 °F 33.9 °F 37.9 °F 89% 30.03 in 6.0 mi North 12.7 mph - N/A   Overcast
8:53 AM 41.0 °F 34.3 °F 37.9 °F 89% 30.04 in 5.0 mi North 11.5 mph - N/A   Overcast
9:53 AM 39.9 °F 30.5 °F 36.0 °F 86% 30.06 in 7.0 mi North 19.6 mph 23.0 mph N/A   Overcast
10:28 AM 41.0 °F 32.8 °F 35.6 °F 81% 30.03 in 10.0 mi North 16.1 mph - N/A   Overcast
10:53 AM 41.0 °F 33.5 °F 33.1 °F 73% 30.06 in 10.0 mi North 13.8 mph - N/A   Mostly Cloudy
11:04 AM 44.6 °F 38.4 °F 33.8 °F 66% 30.03 in 10.0 mi North 12.7 mph - N/A   Scattered Clouds
12:53 PM 46.9 °F - 30.9 °F 54% 30.05 in 10.0 mi North 12.7 mph - N/A   Clear
1:53 PM 48.0 °F - 30.9 °F 52% 30.03 in 10.0 mi North 11.5 mph 18.4 mph N/A   Clear
2:53 PM 48.0 °F - 28.9 °F 48% 30.01 in 10.0 mi NW 12.7 mph 19.6 mph N/A   Clear
3:53 PM 48.9 °F - 28.0 °F 44% 30.01 in 10.0 mi North 13.8 mph - N/A   Clear
4:53 PM 46.9 °F - 25.0 °F 42% 30.01 in 10.0 mi North 11.5 mph - N/A   Clear
5:53 PM 43.0 °F 37.7 °F 26.1 °F 51% 30.01 in 10.0 mi North 9.2 mph - N/A   Clear
6:53 PM 39.0 °F 34.0 °F 25.0 °F 57% 30.03 in 10.0 mi North 6.9 mph - N/A   Clear
7:53 PM 36.0 °F 29.6 °F 25.0 °F 64% 30.04 in 10.0 mi North 8.1 mph - N/A   Clear
8:53 PM 34.0 °F 27.2 °F 26.1 °F 73% 30.05 in 10.0 mi North 8.1 mph - N/A   Clear
9:53 PM 35.1 °F 28.6 °F 26.1 °F 70% 30.05 in 10.0 mi North 8.1 mph - N/A   Clear
10:53 PM 30.9 °F 26.2 °F 25.0 °F 79% 30.06 in 10.0 mi NNW 4.6 mph - N/A   Clear
11:53 PM 30.9 °F - 25.0 °F 79% 30.07 in 10.0 mi Calm Calm - N/A   Clear